AirNav   Air Wisconsin pilot careers
 
 1019 users online  

05OR 6 Ranch Airport
Enterprise, Oregon, USA

GOING TO ENTERPRISE?


FAA INFORMATION EFFECTIVE 24 MAY 2018

Location

FAA Identifier: 05OR
Lat/Long: 45-26-39.3000N / 117-20-50.3000W
45-26.655000N / 117-20.838333W
45.4442500 / -117.3473056
(estimated)
Elevation: 3500 ft. / 1067 m (estimated)
Variation: 18E (1985)
From city: 3 miles W of ENTERPRISE, OR
Time zone: UTC -7 (UTC -8 during Standard Time)
Zip code: 97828

Airport Operations

Airport use: Private use. Permission required prior to landing
Activation date: 08/1980
Control tower: no
ARTCC: SEATTLE CENTER
FSS: MC MINNVILLE FLIGHT SERVICE STATION
Attendance: UNATNDD
Wind indicator: yes
Segmented circle: no

Airport Communications

WX AWOS-3 at JSY (6 nm SE): 123.775 ((541) 432-0458)

Nearby radio navigation aids

NDB name  Hdg/Dist  Freq  Var  ID
LA GRANDE060/26.629617ELGD .-.. --. -..

Airport Services

Runway Information

Runway 11/29

Dimensions: 2600 x 50 ft. / 792 x 15 m
Surface: turf
RUNWAY 11  RUNWAY 29
Traffic pattern: leftleft
Obstructions: pline
PLINE AND HILLS AND TREES IN THE APCH.
pline, 3500 ft. from runway

Helipad H1

Dimensions: 75 x 75 ft. / 23 x 23 m
Surface: turf
Traffic pattern: leftleft

Airport Ownership and Management from official FAA records

Ownership: Privately-owned
Owner: MCALISTER LAND, LLC
7892 NE QUAALE RD
MADRAS, OR 97741
Phone 541-426-3827
Manager: LIZA J. MCALISTER
7892 NE QUAALE RD
MADRAS, OR 97741-9562
Phone 541-426-3827

Airport Operational Statistics

Aircraft based on the field: 2
Single engine airplanes: 1
Helicopters: 1
    

Additional Remarks

A52-H1 PLINE AND HILLS AND TREES ALL QUANDRANTS.

Instrument Procedures

There are no published instrument procedures at 05OR.

Some nearby airports with instrument procedures:

KLGD - La Grande/Union County Airport (29 nm W)
KBKE - Baker City Municipal Airport (41 nm SW)
KALW - Walla Walla Regional Airport (55 nm NW)
KLWS - Lewiston-Nez Perce County Airport (58 nm N)
KGIC - Idaho County Airport (59 nm NE)
 
Loc | Ops | Rwys | IFR | FBO | Links
Com | Nav | Svcs | Stats | Notes

AirNav Hotels Sweepstakes
 
Area around 05OR (6 Ranch Airport)
 
Road maps at: MapQuest Bing Google
 
Aerial photo
WARNING: Photo may not be current or correct
Aerial photo of 05OR (6 Ranch Airport)
Do you have a better or more recent aerial photo of 6 Ranch Airport that you would like to share? If so, please send us your photo.

 
Sectional chart

 
Airport distance calculator
Flying to 6 Ranch Airport? Find the distance to fly.

From to 05OR

Sunrise and sunset
Times for 19-Jun-2018
 Local
(UTC-7)
 Zulu
(UTC)
Morning civil twilight04:2311:23
Sunrise05:0112:01
Sunset20:4003:40
Evening civil twilight21:1804:18

Current date and time
Zulu (UTC)  20-Jun-2018 02:28:19
Local (UTC-7)  19-Jun-2018 19:28:19
 
METAR
KLGD 
30nm W 
200156Z AUTO 01004KT 10SM CLR 23/12 A3010 RMK AO2 SLP323 T02330122
KBKE 
41nm SW 
200153Z AUTO 25005KT 10SM BKN070 OVC095 21/13 A3012 RMK AO2 SLP182 T02060128
KMEH 
45nm W 
200156Z AUTO 00000KT 10SM SCT050 BKN085 19/12 A3013 RMK AO2 SLP188 T01890122
TAF
KBKE 
41nm SW 
191720Z 1918/2018 31007KT P6SM VCSH BKN050 FM200300 VRB04KT P6SM SCT200
NOTAMs
Click for the latest NOTAMs
NOTAMs are issued by the DoD/FAA and will open in a separate window not controlled by AirNav.

 

 
 

Would you like to see your business listed on this page?

 If your business provides an interesting product or service to pilots, flight crews, aircraft, or users of the 6 Ranch Airport, you should consider listing it here.  To start the listing process, click on the button below
 
Add a business
 

Other Pages about 6 Ranch Airport

Update a link
 
Copyright © AirNav, LLC. All rights reserved. Privacy Policy  Contact